Regional Weather Roundup
Issued by NWS Charleston, SC

Current Version | Previous Version | Text Only | Print | Product List | Glossary Off
Versions: 1 2 3 4 5 6 7 8 9 10 11 12 13 14 15 16 17 18 19 20 21 22 23 24 25 26 27 28 29 30 31 32 33 34 35 36 37 38 39 40 41 42 43 44 45 46 47 48 49 50
000 ASUS42 KCHS 200725 RWRCHS REGIONAL WEATHER ROUNDUP NATIONAL WEATHER SERVICE CHARLESTON SC 300 AM EDT SAT SEP 20 2014 NOTE: "FAIR" INDICATES FEW OR NO CLOUDS BELOW 12,000 FEET WITH NO SIGNIFICANT WEATHER AND/OR OBSTRUCTIONS TO VISIBILITY. NOT ALL STATIONS ARE QUALITY CONTROLLED BY THE NATIONAL WEATHER SERVICE. USE DATA WITH CAUTION...ESPECIALLY DEWPOINT OBSERVATIONS. SCZ027-030-031-034>040-042>050-200800- ...SOUTH CAROLINA... CITY SKY/WX TMP DP RH WIND PRES REMARKS N CHARLESTON CLOUDY 72 69 90 N6 30.07F WATERFRONT PRK N/A 79 N/A N/A E17 N/A FORT JOHNSON NOT AVBL MOUNT PLEASANT LGT RAIN 72 70 94 E6 30.06F JOHNS ISLAND MOSUNNY 75 75 100 E9 30.05F PINOPOLIS N/A 73 70 88 NE16 30.00F MONCKS CORNER N/A 70 70 100 NE6 30.09S SUMMERVILLE PTSUNNY 70 70 100 NE5 30.09F BEAUFORT MCAS LGT RAIN 71 69 93 W10 30.04F BEAUFORT ARPT RAIN 72 72 100 NE6 30.04F HILTON HEAD IS CLOUDY 73 72 94 NE8 30.04F GEORGETOWN NOT AVBL WALTERBORO PTSUNNY 70 N/A N/A N3 30.08F ORANGEBURG PTCLDY 69 64 84 E7 30.11F BARNWELL FAIR 68 66 94 NE7 30.10F AIKEN FAIR 64 64 100 NE8 30.16S MANNING PTSUNNY 68 N/A N/A NE5 30.11F KINGSTREE NOT AVBL COLUMBIA PTCLDY 70 60 70 NE13 30.13F SUMTER CLEAR 65 59 82 NE9 30.12F FLORENCE CLEAR 66 60 81 NE10 30.15F MYRTLE BEACH CLOUDY 70 63 78 N12 30.11F N MYRTLE BEACH CLOUDY 69 62 78 NE14 30.12S $$ GAZ063-065-086>088-099>101-113>116-118-119-134-136>141-150-200800- ...GEORGIA... CITY SKY/WX TMP DP RH WIND PRES REMARKS SAVANNAH ARPT PTCLDY 72 68 88 NE10 30.02F HUNTER AAF MOCLDY 71 71 98 NE9 30.00F FORT STEWART PTCLDY 70 68 91 NE9 30.01F STATESBORO NOT AVBL SYLVANIA PTSUNNY 72 70 96 E7 30.07F CLAXTON CLOUDY 70 70 100 NE8 30.05R THOMSON CLEAR 69 69 100 NE6 30.16F AUGUSTA-BUSH CLEAR 68 65 90 NE8 30.10F AUGUSTA-DANIEL CLEAR 69 65 86 NE10 30.12F SWAINSBORO FAIR 70 70 100 NE5 30.07F VIDALIA CLOUDY 68 68 100 NE9G17 30.04F ALMA PTCLDY 70 67 90 VRB3 30.01F WAYCROSS PTCLDY 72 71 97 NE7 30.00F JESUP FAIR 72 70 94 NE5 30.00F BRUNSWICK CLOUDY 72 70 94 N6 29.98F SAINT SIMONS CLOUDY 73 71 93 NW7 29.97F $$ SCZ027-028-034-036>038-045-046-048>050-GAZ119-141-200800- ...LAKE AND SUPPLEMENTAL COASTAL OBSERVATIONS... STATION/POSITION TIME TEMP WIND PRES WAVE SWELL AIR SEA DIR/SP/G HT/PER HT/PER/DIR (UTC) (F) (DEG/KT/KT) (MB) (FT/S) (FT/S/D) UPR LAKE MARION NOT AVBL WINYAH BAY 0600 78 80/ 15 1019.0S LAKE MURRAY 0600 68 30/ 3/ 7 1020.3F ACE BASIN NERRS 0700 70 60/ 5 1018.0S FORT PULASKI 0700 78 60/ 22/ 25 1016.7F SAPELO ISLAND NOT AVBL $$ ANZ835-935-AMZ111-154-330-350-352-354-374-450-454-472-200800- ...C-MAN AND BUOY OBSERVATIONS... STATION/POSITION TIME TEMP WIND PRES WAVE SWELL AIR SEA DIR/SP/G HT/PER HT/PER/DIR (UTC) (F) (DEG/KT/KT) (MB) (FT/S) (FT/S/D) FOLLY BEACH CMAN 0700 77 80/ 18/ 21 1018.2F BUOY 41004 0700 75 82 100/ 21/ 25 1016.4F 7/ 8 5/ 8 BUOY 41008 0700 80 84 70/ 19/ 23 1014.6F 5/ 6 2/ 40/11 5E ST. MARYS GA 0700 84 N/A 4/ 6 FRYING PAN BUOY NOT AVBL BUOY 41025 0700 77 60/ 16/ 17 1019.9F 6/ 7 3/ 60/ 9 CAPE LOOKOUT NC 0700 74 30/ 21/ 23 1020.1F BUOY 41002 0619 74 82 100/ 16/ 19 1017.1 8/ 8 3/ 60/13 BUOY 41010 0700 75 84 10/ 16/ 17 1013.1F 5/ 6 3/350/ 8 BUOY 41012 NOT AVBL ST AUGUSTINE FL 0700 75 210/ 7/ 9 1014.4F CAPERS NEARSHORE 0600 78 90/ 23/ 27 N/A FRIPP NEARSHORE NOT AVBL $$

USA.gov is the U.S. government's official web portal to all federal, state and local government web resources and services.